Simultaneous Nadir Overpasses (SNOs) Predictions

Prediction of SNOs between NOAA-20 and AQUA Satellite Orbit:

Table of predicted SNOs for the next 14.0 days since TLE Epoch: 7/20/2018
Index Date (NOAA-20) Time (NOAA-20) Lat,Lon (NOAA-20) SZA (NOAA-20 ) Date (AQUA) Time (AQUA) Lat,Lon (AQUA) SZA (AQUA ) Distance(km) Time Diff (sec)
1 07/21/2018 06:46:16 76.12, -42.32 77.40 07/21/2018 06:46:56 76.12, -42.29 77.36 0.99 40
2 07/21/2018 07:36:39 -77.13, 128.85 103.89 07/21/2018 07:36:03 -77.12, 128.81 103.85 1.24 36
3 07/23/2018 23:03:02 76.58, 75.11 77.35 07/23/2018 23:03:21 76.57, 75.04 77.35 2.03 19
4 07/23/2018 23:53:33 -77.22,-114.97 103.49 07/23/2018 23:52:35 -77.23,-114.93 103.46 1.16 58
5 07/26/2018 14:30:03 -74.29, 16.45 99.32 07/26/2018 14:31:17 -74.24, 16.69 99.40 8.94 74
6 07/26/2018 15:19:56 76.68,-168.75 77.79 07/26/2018 15:19:53 76.68,-168.73 77.79 0.66 3
7 07/26/2018 16:06:16 -79.77, 81.77 117.27 07/26/2018 16:05:03 -80.46, 84.17 116.97 89.38 73
8 07/29/2018 06:46:22 -76.00, 137.27 100.78 07/29/2018 06:47:15 -76.00, 137.27 100.82 0.10 53
9 07/29/2018 07:36:41 77.12, -51.19 77.81 07/29/2018 07:36:17 77.11, -51.30 77.86 2.97 24
10 07/31/2018 23:03:14 -76.20,-106.30 100.38 07/31/2018 23:03:45 -76.20,-106.25 100.42 1.60 31




NCC Satellite Simultaneous Nadir Overpasses (SNOs) Prediction Service
